www.pogodaiklimat.ru

Погода и климат >> Архив погоды >> Мексика >> Tepehuanes


ПОГОДА в Tepehuanes

  • Прогноз погоды в Tepehuanes
  • Монитор погоды в Tepehuanes
  • Климат города

АРХИВ ПОГОДЫ в Tepehuanes

Время (UTC), дата Ветер
(напр.,м/с)
 
Видим.   Явления Облачность Т
(С)
Тd
(С)
f
(%)
Тe
(С)
Тes
(С)
Комфортность P
(гПа)
Po
(гПа)
Тmin
(С)
Tmax
(С)
R
(мм)
R24
(мм)
S
(см)
15 17.08 В 1 10 км 9/9 660 м
[Frnb]
+17.7 +15.1 85 +19 +19 1019.8 824.3
00 20.08 СВ 1 10 км 10/10 600 м
[Frnb]
+18.9 +15.5 81 +21 +21 комфорт 1015.2 820.6 +28.0 0.0
03 20.08 З 1 1000 м 10/10 800 м
[Frnb]
+17.1 +15.6 91 +18 +18 1016.6 821.8 0.5
12 20.08 ЮЗ 1 1000 м 8/4 600 м
[Sc Ac trans]
+16.0 +14.7 92 +17 +17 1016.5 821.7 +15.0 +32.0
15 20.08 СВ 1 10 км 5/5 800 м
[St]
+17.2 +18 +22 1017.5 822.5
18 20.08 В 5 10 км 5/3 800 м
[Sc diur, vesp Ci]
+24.0 +11.7 46 +26 +32 жарко 1016.0 821.3 +15.0 +25.4
21 20.08 ЮЗ 2 10 км 8/8 800 м
[St]
+24.5 +15.3 57 +27 +31 жарко 1015.0 820.5
00 21.08 З 1 10 км 8/8 600 м
[St]
+20.9 +13.0 61 +25 +25 комфорт 1014.4 820.0 +13.0 +29.0
12 21.08 штиль 0 10 км ясно +18.7 +14.6 77 +19 +19 1018.6 823.4
15 21.08 штиль 0 10 км ясно +18.7 +14.6 77 +19 +27 1018.6 823.4
00 22.08 В 2 10 км 4/4 600 м
[Cu med, cong]
+24.4 +14.7 55 +27 +29 жарко 1015.7 821.0 +13.0 +30.0
12 22.08 штиль 0 1000 м ясно +14.0 +13.1 94 +14 +14 1019.1 823.8 +13.0 +30.0
15 22.08 штиль 0 10 км ясно +18.0 +13.8 76 +18 +26 1020.6 825.0
18 22.08 штиль 0 10 км 1/1 870 м
[Cu med, cong]
+27.0 +14.1 45 +29 +53 опасность
солнечного
удара
1019.9 824.5 +13.0 +28.0
21 22.08 ЮВ 3 10 км 3/3 800 м
[Sc diur, vesp]
+29.5 +11.4 33 +30 +40 жарко 1018.0 822.9
00 23.08 В 3 10 км 4/3 600 м
[Sc As op]
+29.8 +10.3 30 +30 +31 жарко 1015.7 821.1 +13.0 +32.0
03 23.08 штиль 0 100 м 5/5 660 м
[Frnb]
+22.0 +12.5 55 +25 +25 комфорт 1018.5 823.3
12 23.08 штиль 0 1000 м 1/0
[Ci]
+14.4 +13.5 94 +14 +14 1018.3 823.2 +13.3 +32.0
15 23.08 штиль 0 10 км 3/0
[Ci]
+18.0 +13.6 75 +18 +25 1017.5 822.5
18 23.08 ЮВ 2 10 км 4/4 800 м
[Sc diur, vesp]
+27.0 +13.6 44 +29 +41 жарко 1018.2 823.1 +13.3 +28.2
21 23.08 Ю 5 10 км 6/6 660 м
[Frnb]
+27.0 +15.4 49 +30 +33 душно 1014.9 820.4
00 24.08 СЗ 2 10 км 4/4 600 м
[Frnb]
+26.0 +13.5 46 +28 +29 жарко 1012.9 818.8 +13.3 +30.5
03 24.08 З 2 100 м 5/5 660 м
[Frnb]
+19.9 +13.7 67 +22 +22 комфорт 1014.7 820.2

 

Местоположение метеостанции Tepehuanes (Мексика): широта 25.34 долгота -105.72 высота над уровнем моря 1810 м.

В архиве по умолчанию представлена погода в Tepehuanes за последнюю неделю. Архивные данные за месяц целиком и за предыдущие месяцы, начиная с января 2011 года, Вы можете получить, выбрав интересующий диапазон дат из раскрывающегося списка и нажав кнопку "Ввод!".

Внимание! Время в таблицах - всемирное. Для получения местного времени необходимо прибавить поправку, которая в Tepehuanes равна -6 ч.

Смотрите также архив погоды в соседних городах и на ближайших метеорологических станциях:

Погода в Hidalgo del Parral (Мексика) (177 км)
Погода в Culiacan (Мексика) (180 км)
Погода в Durango (Мексика) (183 км)
Погода в Torreon (Мексика) (234 км)
Погода в Colonia Juan Carras-Co (Мексика) (248 км)
Погода в Sombrerete (Мексика) (287 км)
Погода в Choix (Мексика) (292 км)
Погода в Chihuahua University (Мексика) (367 км)
Погода в Chihuahua (Мексика) (375 км)
Погода в Huejucar (Мексика) (407 км)

Пояснения к столбцам:

Ветер - указаны скорость ветра в м/с - средняя за 10 мин, порывы в срок и между сроками (в фигурных скобках) и направление, откуда дует ветер: С - северный, СВ - северо-восточный, В - восточный, ЮВ - юго-восточный, Ю - южный, ЮЗ - юго-западный, З - западный, СЗ - северо-западный.
Видимость - горизонтальная дальность видимости в метрах или километрах. При видимости от 1 до 10 км при отсутствии осадков обычно наблюдается дымка, при ухудшении видимости до 1 км и менее - туман. В сухую погоду видимость может ухудшаться дымом, пылью или мглою.
Явления - указаны атмосферные явления, наблюдавшиеся в срок или в последний час перед сроком; фигурными скобками обозначены явления, наблюдавшиеся между сроками (за 1-3 часа до срока); квадратными скобками обозначены град или гололедные отложения с указанием их диаметра в мм.
Облачность - указаны через наклонную черту общая и нижняя облачность в баллах и высота нижней границы облаков в метрах; квадратными скобками обозначены формы облаков: Ci - перистые, Cs - перисто-слоистые, Cc - перисто-кучевые, Ac - высококучевые, As - высокослоистые, Sc - слоисто-кучевые, Ns - слоисто-дождевые, Cu - кучевые, Cb - кучево-дождевые. Подробнее классификацию облаков см. в Атласе облаков (PDF).
T - Температура воздуха - температура, измеренная на высоте 2 м над землей.
Td - Температура точки росы - температура, при понижении до которой содержащийся в воздухе водяной пар достигнет насыщения.
f - Относительная влажность воздуха - влажноcть воздуха, измеренная на высоте 2 м над землей.
Te - Эффективная температура - температура, которую ощущает одетый по сезону человек в тени. Характеристика душности погоды. При расчете учитывается влияние влажности воздуха и скорости ветра на теплоощущения человека.
Tes - Эффективная температура на солнце - температура, которую ощущает человек, с поправкой на солнечный нагрев. Характеристика знойности погоды. Зависит от высоты солнца над горизонтом, облачности и скорости ветра. Ночью, в пасмурную погоду, а также при ветре 12 м/с и более поправка равна нулю.
P - Атмосферное давление - приведенное к уровню моря атмосферное давление.
Po - Атмосферное давление - измеренное на уровне метеостанции атмосферное давление.
Tmin - Минимальная температура - минимум температуры воздуха на высоте 2 м над землей.
Tmax - Максимальная температура - максимум температуры воздуха на высоте 2 м над землей.
R - Количество осадков - Количество выпавших осадков за период времени, мм. При наведении курсора мыши на число - период времени, за который выпало указанное количество осадков.
R24 - Количество осадков - Количество выпавших осадков за 24 часа, мм.
S - Снежный покров - Высота снежного покрова, см. При наведении курсора мыши на число - состояние снежного покрова и степень покрытия местности в баллах.